Flag for Liechtenstein Weather past 2 weeks in Vaduz, Liechtenstein

Now
54 °F

Cool.


Feels Like: 51 °F
Forecast: 37 / 66 °F
Wind: 13 mph from Northwest

Location: Vaduz

Current Time: Apr 18, 2015 at 5:26:31 PM

Latest Report: Apr 18, 2015 at 4:00 PM


Visibility: N/A

Pressure: 30.14 "Hg

Humidity: 49%

Dew point: 35 °F

Location of VaduzLocation

Historic Weather in Vaduz — Graph

°F

Vaduz temperature yesterday

Maximum temperature yesterday: 60 °F (at 12:00 AM)
Minimum temperature yesterday: 51 °F (at 11:00 PM)
Average temperature yesterday: 55 °F

Past Weeks' High & Low Weather Summary

 TemperatureHumidityPressure
High76 °F (Apr 15, 3:00 PM)96% (Apr 18, 2:00 AM)30.65 "Hg (Apr 18, 2:00 AM)
Low28 °F (Apr 6, 6:00 AM)19% (Apr 15, 3:00 PM)29.86 "Hg (Apr 4, 5:00 PM)
Average52 °F56%30.24 "Hg
* Reported Apr 3 4:00 PM — Apr 18 4:00 PM, Vaduz, Weather by CustomWeather, © 2015

Note: Actual official high and low records may vary slightly from our data, if they occured in-between our weather recording intervals... More about our weather records

Advertising

Vaduz weather history for previous 24 hours

 ConditionsComfort  
Time TempWeatherWind HumidityBarometerVisibility
4:00 PM
Sat, Apr 18
54 °FCool.13 mph49%30.14 "HgN/A
3:00 PM54 °FCool.10 mph50%30.16 "HgN/A
2:00 PM51 °FCool.10 mph56%30.16 "HgN/A
1:00 PM52 °FCool.12 mph57%30.16 "HgN/A
12:00 PM48 °FCool.10 mph65%30.18 "HgN/A
11:00 AM47 °FRain. Overcast.9 mph74%30.16 "Hg3 mi
10:00 AM45 °FCool.5 mph88%30.15 "HgN/A
9:00 AM43 °FQuite cool.5 mph88%30.15 "HgN/A
8:00 AM44 °FRain. Overcast.7 mph91%30.12 "Hg2 mi
7:00 AM45 °FCool.2 mph92%30.10 "HgN/A
6:00 AM46 °FCool.5 mph91%30.08 "HgN/A
4:00 AM48 °FCool.3 mph94%30.06 "HgN/A
3:00 AM48 °FCool.2 mph93%30.06 "HgN/A
2:00 AM49 °FRain. Low clouds.1 mph96%30.06 "Hg3 mi
1:00 AM49 °FCool.3 mph94%30.06 "HgN/A
12:00 AM50 °FCool.1 mph94%30.04 "HgN/A
11:00 PM
Fri, Apr 17
51 °FHeavy rain. Low clouds.2 mph93%30.03 "Hg2 mi
10:00 PM51 °FCool.8 mph89%30.01 "HgN/A
9:00 PM53 °FCool.No wind95%29.97 "HgN/A
8:00 PM53 °FRain. Low clouds.1 mph95%29.96 "Hg3 mi
7:00 PM54 °FCool.5 mph95%29.94 "HgN/A
6:00 PM56 °FCool.5 mph87%29.93 "HgN/A
5:00 PM57 °FRain. Overcast.1 mph78%29.92 "Hg3 mi
Weather by CustomWeather, © 2015

See weather overviewHow to use our weather pages